Hourly Data Report for September 29, 2020

OTTAWA INTL A
ONTARIO
Current Station Operator: NAVCAN

45°19'00.000" N
75°40'00.000" W
114.90 m
6106001
71628
YOW

Download Data

Hourly Data (September 2020)
Hourly Data Report for September 29, 2020
TIME Temp Definition
°C
Dew Point Definition
°C
Rel Hum Definition
%
Wind Dir Definition
10's deg

Wind Spd Definition
km/h
Visibility Definition
km
Stn Press Definition
kPa
Hmdx Definition


Wind Chill Definition


Weather Definition


00:00 20.8 16.1 74 16 19 24.1 99.07 25   LegendNANA
01:00 20.5 16.3 76 16 21 24.1 99.02 25   Clear
02:00 19.8 16.4 80 16 17 24.1 98.96     LegendNANA
03:00 20.3 16.8 80 16 19 24.1 98.92 25   LegendNANA
04:00 20.7 17.0 79 17 14 24.1 98.93 26   Mostly Cloudy
05:00 19.8 17.8 88 22 15 4.8 98.99     Rain Showers,Fog
06:00 18.6 18.0 96 23 24 4.8 99.14     Rain Showers,Fog
07:00 17.1 15.5 90 24 21 16.1 99.25     Rain Showers
08:00 16.1 14.7 91 26 16 24.1 99.38     LegendNANA
09:00 15.8 14.0 89 22 16 24.1 99.50     LegendNANA
10:00 17.0 12.8 76 24 17 24.1 99.53     Mostly Cloudy
11:00 17.1 12.9 76 22 16 24.1 99.52     LegendNANA
12:00 17.8 12.8 72 19 17 24.1 99.53     LegendNANA
13:00 17.4 12.7 74 19 16 24.1 99.52     Cloudy
14:00 17.3 12.8 74 18 15 24.1 99.49     LegendNANA
15:00 16.9 13.0 77 20 14 24.1 99.52     LegendNANA
16:00 16.3 13.0 81 18 10 24.1 99.50     Mostly Cloudy
17:00 15.8 13.3 85 17 12 24.1 99.44     LegendNANA
18:00 15.5 12.6 83 18 16 24.1 99.46     LegendNANA
19:00 15.1 12.3 83 18 12 24.1 99.48     Rain
20:00 14.3 12.8 90 19 13 24.1 99.59     LegendNANA
21:00 13.4 12.7 95 16 10 24.1 99.49     Rain
22:00 12.8 12.4 97 18 5 24.1 99.33     Cloudy
23:00 12.7 12.4 98 17 7 24.1 99.30     LegendNANA

Notes on Data Quality.

Legend

  • E = Estimated
  • M = Missing
  • NA = Not Available*
  • [empty] = Indicates an unobserved value
Date modified: